This demonstration page uses our WeatherBlox Daily Observations layout. Learn more.

Left ArrowRight Arrow

39.95238, -75.16362

Hourly Observations for May 4, 2015

Temp ( °F °C ) Dew Point ( °F °C ) Humidity (%) Winds ( mph kmh ) Pressure ( in mb ) Visibility ( mi km ) Precip ( " mm )
12:54 am 00:54 Clear 62 16.7 48 8.9 60 60 WSW 3 6 30.17 1022 10 16 0.00 0.00
1:54 am 01:54 Clear 58 14.4 49 9.4 72 72 Calm 30.17 1022 10 16 0.00 0.00
2:54 am 02:54 Clear 58 14.4 49 9.4 72 72 Calm 30.17 1022 10 16 0.00 0.00
3:54 am 03:54 Clear 58 14.4 49 9.4 72 72 SW 3 6 30.18 1022 10 16 0.00 0.00
4:54 am 04:54 Clear 57 13.9 49 9.4 74 74 SW 3 6 30.19 1022 10 16 0.00 0.00
5:54 am 05:54 Mostly Clear 56 13.3 48 8.9 75 75 SW 3 6 30.20 1023 10 16 0.00 0.00
6:54 am 06:54 Mostly Sunny 57 13.9 51 10.6 81 81 Calm 30.21 1023 10 16 0.00 0.00
7:54 am 07:54 Mostly Sunny 61 16.1 49 9.4 65 65 SW 7 11 30.22 1024 10 16 0.00 0.00
8:54 am 08:54 Mostly Sunny 66 18.9 50 10 56 56 WSW 6 9 30.23 1024 10 16 0.00 0.00
9:54 am 09:54 Mostly Sunny 71 21.7 50 10 47 47 SW 7 11 30.23 1024 10 16 0.00 0.00
10:54 am 10:54 Mostly Sunny 76 24.4 47 8.3 36 36 SSW 7 11 30.24 1024 10 16 0.00 0.00
11:54 am 11:54 Partly Cloudy 80 26.7 47 8.3 31 31 SW 9 15 30.22 1024 10 16 0.00 0.00
12:54 pm 12:54 Mostly Sunny 83 28.3 46 7.8 27 27 WSW 13 20 30.21 1023 10 16 0.00 0.00
1:54 pm 13:54 Mostly Sunny 84 28.9 42 5.6 23 23 SSW 16 26 30.19 1022 10 16 0.00 0.00
2:54 pm 14:54 Partly Cloudy 85 29.4 42 5.6 22 22 SW 18 30 30.18 1022 10 16 0.00 0.00
3:54 pm 15:54 Partly Cloudy 85 29.4 41 5 21 21 SSW 18 30 30.16 1022 10 16 0.00 0.00
4:54 pm 16:54 Mostly Sunny 84 28.9 40 4.4 21 21 SSW 15 24 30.15 1021 10 16 0.00 0.00
5:54 pm 17:54 Sunny 83 28.3 39 3.9 21 21 SSW 13 20 30.15 1021 10 16 0.00 0.00
6:54 pm 18:54 Mostly Sunny 82 27.8 40 4.4 22 22 SSW 15 24 30.14 1021 10 16 0.00 0.00
7:54 pm 19:54 Mostly Sunny 77 25 43 6.1 30 30 S 8 13 30.16 1021 10 16 0.00 0.00
8:54 pm 20:54 Mostly Clear 76 24.4 43 6.1 31 31 S 8 13 30.17 1022 10 16 0.00 0.00
9:54 pm 21:54 Mostly Clear 73 22.8 45 7.2 37 37 SSW 8 13 30.19 1022 10 16 0.00 0.00
10:54 pm 22:54 Partly Cloudy 71 21.7 48 8.9 44 44 S 7 11 30.19 1022 10 16 0.00 0.00
11:54 pm 23:54 Mostly Clear 70 21.1 49 9.4 47 47 SSW 7 11 30.20 1023 10 16 0.00 0.00

Powered by AerisWeather